{"data":{"norad_id":64769,"intl_designator":"2025-147Q","name":"STARLINK-34246","alt_names":[],"object_type":"PAYLOAD","status":"ACTIVE","operator":null,"country":"US","launch_date":"2025-07-08","launch_site_code":"AFETR","launch_vehicle":null,"mission":null,"orbit_class":"UNKNOWN","rcs_meters":null,"size_class":null,"mass_kg":null,"dimensions":null,"purposes":["comms"],"wikipedia_slug":null,"has_3d_model":false,"image_url":null,"decayed_at":null,"tle_current":{"epoch":"2026-09-20T17:30:07.949952Z","epoch_age_seconds":108134,"freshness":"FRESH","line1":"1 64769U 25147Q   26263.72925868  .00020674  00000+0  62125-3 0  9994","line2":"2 64769  53.1568  52.5239 0001248  91.7873 268.3273 15.34404300 68670","mean_motion":15.344043,"eccentricity":0.0001248,"inclination_deg":53.1568,"raan_deg":52.5239,"arg_perigee_deg":91.7873,"mean_anomaly_deg":268.3273,"bstar":0.00062125,"rev_number":6867,"period_min":93.847495083271,"perigee_km":461.83672446379,"apogee_km":463.54419499774,"semimajor_km":6840.8274597308,"source":"CELESTRAK","updated_at":"2026-09-21T09:00:35.439003Z"}}}